Flag for Austria

Past Weather in Horn, Lower Austria, Austria — Yesterday and Last 2 Weeks

Now
51 °F

Cool.


Feels Like: 51 °F
Forecast: 58 / 42 °F
Wind: 2 mph from Southeast

Location: Retz
Current Time: Oct 21, 2020 at 4:16:29 pm
Latest Report: Oct 21, 2020 at 3:00 pm
Visibility: N/A
Pressure30.02 "Hg
Humidity: 82%
Dew Point: 45 °F
Location of HornLocation

Past Weather in Horn — Graph

°F

Horn Temperature Yesterday

Maximum temperature yesterday: 56 °F (at 3:00 pm)
Minimum temperature yesterday: 43 °F (at 8:00 am)
Average temperature yesterday: 48 °F

High & Low Weather Summary for the Past Weeks

 TemperatureHumidityPressure
High68 °F (Oct 9, 4:00 pm)93% (Oct 7, 5:00 am)30.29 "Hg (Oct 7, 5:00 am)
Low39 °F (Oct 19, 2:00 am)49% (Oct 19, 4:00 pm)29.60 "Hg (Oct 14, 8:00 am)
Average47 °F81%30.00 "Hg
* Reported Oct 6 4:00 pm — Oct 21 2:00 pm, Horn. Weather by CustomWeather, © 2020

Note: Actual official high and low records may vary slightly from our data, if they occured in-between our weather recording intervals... More about our weather records

Horn Weather History for the Previous 24 Hours

Scroll right to see more
 ConditionsComfort  
Time TempWeatherWind HumidityBarometerVisibility
2:00 pm
Wed, Oct 21
49 °FOvercast.2 mph83%30.03 "Hg4 mi
1:00 pm48 °FCool.2 mph85%30.04 "HgN/A
12:00 pm46 °FCool.3 mph88%30.05 "HgN/A
11:00 am46 °FCool.3 mph89%30.04 "HgN/A
10:00 am45 °FCool.3 mph91%30.04 "HgN/A
9:00 am45 °FQuite cool.2 mph92%30.02 "HgN/A
8:00 am45 °FFog.2 mph91%30.01 "Hg2 mi
7:00 am45 °FQuite cool.2 mph90%30.01 "HgN/A
6:00 am44 °FQuite cool.3 mph90%30.03 "HgN/A
5:00 am44 °FQuite cool.3 mph89%30.04 "HgN/A
4:00 am45 °FQuite cool.3 mph85%30.06 "HgN/A
3:00 am44 °FQuite cool.2 mph86%30.07 "HgN/A
2:00 am45 °FQuite cool.3 mph84%30.08 "HgN/A
1:00 am44 °FQuite cool.3 mph84%30.09 "HgN/A
12:00 am45 °FCool.3 mph81%30.09 "HgN/A
11:00 pm
Tue, Oct 20
46 °FCool.3 mph82%30.10 "HgN/A
10:00 pm49 °FCool.3 mph76%30.08 "HgN/A
9:00 pm49 °FCool.5 mph76%30.10 "HgN/A
8:00 pm49 °FPassing clouds.3 mph78%30.11 "Hg5 mi
7:00 pm51 °FCool.3 mph76%30.09 "HgN/A
6:00 pm52 °FCool.5 mph73%30.10 "HgN/A
5:00 pm53 °FCool.6 mph71%30.12 "HgN/A
4:00 pm54 °FCool.6 mph70%30.13 "HgN/A
Weather by CustomWeather, © 2020

See weather overview